Location: LDNL
(36.4545°S, 141.6685°E)
Time: 08:51:14
(UTC+11:00)

Courier 1B - Pass Details

Date: 07 February 2023
Orbit: 962 x 1209 km, 28.3° (Epoch: 21 March)

Event Time Altitude Azimuth Distance (km) Brightness Sun altitude
Exits shadow 06:09:00 11° 292° (WNW) 3,064 9.4 -9.4°
Maximum altitude 06:14:07 21° 334° (NNW) 2,437 9.1 -8.5°
Drops below altitude 10° 06:19:35 10° 19° (NNE) 3,131 10.1 -7.5°
Sets 06:23:14 0° 34° (NE) 4,072 10.9 -6.9°
